Tümü
Scott Muni Airport (Oneida, TN) SCX Hava Durumu
|
Oneida, TN (KSCX)
Açık
Hafif rüzgârlı |
|
24 °C |
There is no TAF data available at SCX or any nearby airports.
Yakın zamandaki SCX METAR geçmişi
| Date | Time (EDT) | Flight Rules | Wind Dir. | Speed | Type | Height AGL (ft) | Visibility | Temp (°C) | Temp (°F) | Dew Point (°C) | Dew Point (°F) | Rel. Humid. | Pressure | Density Altitude | Remarks |
|---|---|---|---|---|---|---|---|---|---|---|---|---|---|---|---|
| 05-Eyl | 22:35 | VFR | Calm | 10 miles | 24° | 75° | 22° | 71° | 89% | 29.95 in Hg | 2.832 ft | ||||
| 05-Eyl | 22:15 | VFR | Calm | 10 miles | 24° | 75° | 21° | 69° | 83% | 29.94 in Hg | 2.842 ft | ||||
| 05-Eyl | 21:55 | VFR | Calm | 10 miles | 24° | 75° | 21° | 69° | 83% | 29.93 in Hg | 2.852 ft | ||||
| 05-Eyl | 21:35 | VFR | Calm | 10 miles | 26° | 78° | 21° | 69° | 74% | 29.94 in Hg | 3.082 ft | ||||
| 05-Eyl | 21:15 | VFR | Calm | 10 miles | 26° | 78° | 21° | 69° | 74% | 29.93 in Hg | 3.092 ft | ||||
| 05-Eyl | 20:55 | VFR | Calm | 10 miles | 27° | 80° | 21° | 69° | 70% | 29.93 in Hg | 3.212 ft | ||||
| 05-Eyl | 20:15 | VFR | 310° | 5 kt | 10 miles | 29° | 84° | 22° | 71° | 66% | 29.93 in Hg | 3.452 ft | |||
| 05-Eyl | 19:55 | VFR | Calm | 10 miles | 30° | 86° | 21° | 69° | 59% | 29.93 in Hg | 3.572 ft | ||||
| 05-Eyl | 19:15 | VFR | 330° | 4 kt | 10 miles | 32° | 89° | 21° | 69° | 52% | 29.93 in Hg | 3.812 ft | |||
| 05-Eyl | 18:55 | VFR | 350° | 5 kt | 10 miles | 32° | 89° | 21° | 69° | 52% | 29.93 in Hg | 3.812 ft | |||
| 05-Eyl | 18:15 | VFR | Variable | 5 kt | 10 miles | 32° | 89° | 21° | 69° | 52% | 29.92 in Hg | 3.822 ft | |||
| 05-Eyl | 17:55 | VFR | 360° | 6 kt | 10 miles | 33° | 91° | 21° | 69° | 49% | 29.92 in Hg | 3.942 ft | |||
| 05-Eyl | 17:15 | VFR | 350° | 9 kt | 10 miles | 33° | 91° | 20° | 68° | 46% | 29.93 in Hg | 3.932 ft | |||
| 05-Eyl | 16:55 | VFR | 330° | 9 kt | 10 miles | 33° | 91° | 21° | 69° | 49% | 29.94 in Hg | 3.922 ft | |||
| 05-Eyl | 16:15 | VFR | 300° | 4 kt | 10 miles | 33° | 91° | 21° | 69° | 49% | 29.94 in Hg | 3.922 ft | |||
| 05-Eyl | 15:55 | VFR | 20° | 9 kt | 10 miles | 33° | 91° | 21° | 69° | 49% | 29.94 in Hg | 3.922 ft | |||
| 05-Eyl | 15:15 | VFR | Calm | 10 miles | 32° | 89° | 22° | 71° | 56% | 29.97 in Hg | 3.772 ft | ||||
| 05-Eyl | 14:55 | VFR | 130° | 3 kt | 10 miles | 32° | 89° | 22° | 71° | 56% | 29.97 in Hg | 3.772 ft | |||
| 05-Eyl | 14:15 | VFR | Calm | 10 miles | 31° | 87° | 22° | 71° | 59% | 29.99 in Hg | 3.632 ft | ||||
| 05-Eyl | 13:55 | VFR | Calm | 10 miles | 30° | 86° | 21° | 69° | 59% | 29.99 in Hg | 3.512 ft | ||||
| 05-Eyl | 13:15 | VFR | Variable | 6 kt | 10 miles | 29° | 84° | 23° | 73° | 70% | 30.00 in Hg | 3.382 ft | |||
| 05-Eyl | 12:55 | VFR | 50° | 6 kt | 10 miles |
28° | 82° | 25° | 77° | 84% | 30.01 in Hg | 3.252 ft | |||
| 05-Eyl | 12:15 | VFR | 330° | 6 kt | 9 miles | 25° | 77° | 24° | 75° | 94% | 30.03 in Hg | 2.872 ft | |||
| 05-Eyl | 11:55 | VFR | 10° | 10 kt | 9 miles | 27° | 80° | 22° | 71° | 74% | 30.03 in Hg | 3.112 ft |
Giriş
| Tarayıcınız desteklenmiyor. tarayıcınızı yükseltin |
